Location: Jackson Park
(37.2862°N, 79.9123°W)
Time: 20:21:40
(UTC+00:00)

Transit 4A - Pass Details

Date: 17 May 2026
Orbit: 860 x 980 km, 66.8° (Epoch: 9 June)

Event Time Altitude Azimuth Distance (km) Brightness Sun altitude
Rises 23:12:13 0° 317° (NW) 3,686 12.1 12.4°
Reaches altitude 10° 23:15:23 10° 303° (WNW) 2,730 12.2 11.8°
Maximum altitude 23:20:04 22° 256° (WSW) 1,990 10.8 10.9°
Drops below altitude 10° 23:24:41 10° 208° (SSW) 2,685 10.5 10.0°
Sets 23:27:47 0° 193° (SSW) 3,609 10.9 9.4°
